Regional Weather Roundup
Issued by NWS Wakefield, VA

Home | Current Version | Previous Version | Text Only | Print | Product List | Glossary Off
Versions: 1 2 3 4 5 6 7 8 9 10 11 12 13 14 15 16 17 18 19 20 21 22 23 24 25 26 27 28 29 30 31 32 33 34 35 36 37 38 39 40 41 42 43 44 45 46 47 48 49 50

000
ASUS41 KAKQ 282115
RWRAKQ

REGIONAL WEATHER ROUNDUP
NATIONAL WEATHER SERVICE WAKEFIELD VA
500 PM EDT TUE MAR 28 2017

Note: "fair" indicates few or no clouds below 12,000 feet with no
significant weather and/or obstructions to visibility. * = Denotes
station may not report precipitation (e.g., rain,snow,etc.),
thunder or fog.

VAZ042-051-052>054-056-282200-
NORTHERN VIRGINIA

CITY           SKY/WX    TMP DP  RH WIND       PRES   REMARKS
WASH NATIONAL  PTSUNNY   73  55  53 NW9       29.82F
DULLES         PTSUNNY   69  54  58 NW8       29.83S
FORT BELVOIR   CLOUDY    72  53  51 N7        29.82S
QUANTICO       PTSUNNY   69  56  62 S3        29.83S
FREDERICKSBRG* LGT RAIN  71  59  66 NW12      29.82S
STAFFORD*      CLOUDY    65  62  91 N6        29.87S
WARRENTON      PTSUNNY   71  55  56 CALM      29.83S
CULPEPER*      PTSUNNY   69  60  70 CALM      29.85R
MANASSAS*        N/A    N/A N/A N/A NE3       29.83S
LEESBURG*      CLOUDY    70  57  64 N7        29.84S
WINCHESTER     CLOUDY    63  55  77 NW8       29.85R
FRONT ROYAL*   CLOUDY    68  55  64 NE6       29.84R
LURAY*         CLOUDY    68  57  68 W6        29.84S
$$

VAZ048-049-060>072-079>083-282200-
CENTRAL AND SOUTH CENTRAL VIRGINIA

CITY           SKY/WX    TMP DP  RH WIND       PRES   REMARKS
RICHMOND       CLOUDY    70  60  70 S7        29.83S
CHESTERFIELD*  MOCLDY    72  48  43 W3        29.84S
PETERSBURG*    MOSUNNY   72  54  53 W10       29.84F
HANOVER        PTSUNNY   72  56  57 S9        29.83S
TAPPAHANNOCK*  PTSUNNY   74  47  37 SE6       29.82F
QUINTON*       FAIR      71  60  67 MISG      29.82S
CHARLOTTSVILLE CLOUDY    71  54  54 NE8       29.83R
GORDONSVILLE*  CLOUDY    63  57  82 NE5       29.83R HAZE
ORANGE*        CLOUDY    61  57  88 CALM      29.85F
LOUISA*        LGT RAIN  70  61  73 NE8       29.83R
BUMPASS*       MOCLDY    72  55  54 CALM      29.82S
FARMVILLE*     MOSUNNY   75  56  51 SW10G16   29.82S
CREWE*         FAIR      72  58  60 W5        29.84F
FORT PICKETT*  FAIR      72  55  55 SW14G20   29.85S
CHASE CITY*    FAIR      67  60  77 CALM      29.86F
CLARKSVILLE*   FAIR      70  59  68 W3        29.86F
SOUTH HILL*    CLOUDY    63  60  90 NW3       29.91F
LAWRENCEVILLE* CLOUDY    65  60  81 CALM      29.85S
EMPORIA*       LGT RAIN  68  59  73 S9        29.86S
$$

VAZ088>098-282200-
SOUTHEAST VIRGINIA

CITY           SKY/WX    TMP DP  RH WIND       PRES   REMARKS
NORFOLK        CLOUDY    72  58  61 SW13      29.82F
VIRGINIA BEACH PTSUNNY   71  56  58 SW10      29.82F
NORFOLK NAVAL  TSTM      71  58  63 SW9       29.84F
WEST POINT*    CLOUDY    71  56  59 SW7       29.83S
SALUDA*        FAIR      73  59  61 SW3       29.81F
NEWPORT NEWS   TSTM      65  60  84 W3        29.82F
LANGLEY AFB    TSTM      70  61  74 S13       29.82S
FORT EUSTIS    DRIZZLE   61  57  88 CALM      29.80F
WILLIAMSBURG*  CLOUDY    73  61  64 CALM      29.84R
HR EXEC AP*    FAIR      72  61  68 SW8       29.81S
FRANKLIN*      CLOUDY    72  59  62 S8        29.84F
US460-WAKEFLD  CLOUDY    74  60  61 W8        29.83S
$$

VAZ020-022-025-037-045-282200-
WEST CENTRAL AND SOUTHWEST VIRGINIA

CITY           SKY/WX    TMP DP  RH WIND       PRES   REMARKS
STAUNTON*      PTSUNNY   68  50  52 N7        29.87S
WAYNESBORO*    PTCLDY    68  51  54 W6        29.86S
HOT SPRINGS VA CLOUDY    55  43  62 W15G23    29.95R
LYNCHBURG      PTSUNNY   71  49  45 VRB7G21   29.87S
DANVILLE       MOSUNNY   73  56  54 W14       29.86F
SOUTH BOSTON*  FAIR      73  56  56 W5        29.86S
MARTINSVILLE   MOSUNNY   72  53  50 N7        29.90F
ROANOKE        PTSUNNY   70  49  47 W10       29.90S
BLACKSBURG     CLOUDY    64  52  65 W8        29.96S
DUBLIN*        CLOUDY    64  51  62 W14       29.97R
MARION*        LGT RAIN  60  50  69 CALM      30.01R
HILLSVILLE*    CLOUDY    62  50  65 W12       29.96S
RICHLANDS*     CLOUDY    58  50  74 NW6       30.00S
WISE*          CLOUDY    59  46  63 W9        30.02S
ABINGDON*      CLOUDY    65  53  67 N8        29.99S
$$

MDZ021>025-VAZ099-100-282200-
SOUTHERN MARYLAND AND THE DELMARVA PENINSULA

CITY           SKY/WX    TMP DP  RH WIND       PRES   REMARKS
PATUXENT RIVER LGT RAIN  63  61  93 N6        29.82F
BAY BRIDGE APT MOSUNNY   66  57  72 N8        29.82S HAZE
LEONARDTOWN    CLOUDY    61  59  94 CALM      29.84F
DOVER          LGT RAIN  57  57 100 VRB3      29.80R FOG
GEORGETOWN     CLOUDY    70  57  63 W7        29.81F
EASTON         PTSUNNY   72  57  60 NW13      29.85S
CAMBRIDGE      MOSUNNY   66  61  82 SW5       29.83R
SALISBURY      PTSUNNY   71  57  61 W12       29.82S
OCEAN CITY     MOSUNNY   61  53  75 S7        29.81F
WALLOPS ISLAND MOSUNNY   70  58  65 W9        29.83S
ACCOMACK*      CLOUDY    73  58  58 W7        29.82F
$$

NCZ012>017-030>032-282200-
NORTH CENTRAL AND EASTERN NORTH CAROLINA

CITY           SKY/WX    TMP DP  RH WIND       PRES   REMARKS
ROANOKE RAPIDS HVY RAIN  61  59  94 W10       29.88R
RALEIGH        PTSUNNY   78  54  43 W10G18    29.85F
ELIZABETH CITY MOSUNNY   71  60  68 S14       29.84F
AHOSKIE*       RAIN      69  62  80 CALM      29.86R
EDENTON*       MOSUNNY   74  60  61 CALM      29.86F
CURRITUCK*     MOSUNNY   73  58  61 SW13      29.85F
KILL DEVIL HLS NOT AVBL
MANTEO         CLOUDY    66  60  80 S7        29.87F
CAPE HATTERAS  CLOUDY    67  62  84 S7        29.88F HAZE
TARBORO*       NOT AVBL
GOLDSBORO      MOSUNNY   79  60  52 W13       29.82F
WASHINGTON     MOSUNNY   74  62  67 SW9       29.85F
GREENVILLE     PTSUNNY   73  61  64 SW5       29.88F
NEW BERN       LGT RAIN  68  64  87 NE6       29.88S
WILMINGTON     SUNNY     78  60  53 SW18      29.86F
$$

VAZ048-282200-
ELSEWHERE

CITY           SKY/WX    TMP DP  RH WIND       PRES   REMARKS
HARRISBURG PA  CLOUDY    54  53  97 W3        29.85R
BALTIMORE      PTSUNNY   70  57  63 W8        29.81F
ANNAPOLIS      SUNNY     67  55  65 NW8       29.81S
ANDREWS AFB    MOSUNNY   69  54  57 NW9       29.82R
PHILADELPHIA   CLOUDY    53  50  89 N7        29.85R
HENDERSON NC   MOSUNNY   67  56  67 NW5       29.87S
GREENSBORO     MOSUNNY   77  52  41 NW10      29.87F
ROCKY MOUNT    CLOUDY    75  61  61 SW8       29.84F
$$

VAZ100-282200-
MARINE

STATION/POSITION TIME  TEMP    WIND        PRES    WAVE   SWELL
                       AIR SEA DIR/SP/G            HT/PER HT/PER
                 (UTC) (F)     (DEG/KT/KT) (MB)    (FT/S) (FT/S)
CAPE MAY NJ      2048   58 46  130/  6/  8 1009.0F
LEWES DE         2048   69 45  220/  6/  9 1009.0F
OCEAN-CITY-INLET 2048   51 49  200/  6/  8 1010.0F
WACHAPREAGUE VA  2048   72 60  240/  6/ 15 1009.5F
THOMAS POINT MD  2100   61 47   60/  6/  7   N/A
GOOSES REEF MD   2100   53 48  190/  8/  8 1010.7    0
COVE POINT MD    2048   58     200/  7/  9 1010.7R
SOLOMONS ISLAND  2048   63 49  310/  2/  4   N/A
BISHOPS HEAD MD  2048   59 54  180/  3/  5 1010.5R
PINEY POINT MD   2048          320/  7/  8   N/A
POTOMAC MD       2100   53 49   90/  4/  4 1009.0    0
CAMBRIDGE MD     2048   67 48  200/  4/  6 1009.2R
LEWISETTA VA     2048   63 52   20/  6/  8 1009.6R
RAPPAHANNOCK LGT 2048          210/  5/  5 1010.5F
STINGRAY PT      2100   60 50  160/  6/  8 1010.4    0
YORK RVR RNG VA  2048   67     280/  5/  5 1009.1F
YORKTOWN VA      2048   65 51  150/  5/ 27 1009.5F
JAMESTOWN VA     2100   68 57  290/  4/  4   N/A     0
DOMINION TERM VA 2048   63     220/  8/  9 1010.0F
KIPTOPEKE VA     2048      51  150/  5/  6   N/A
CHES BAY BRIDGE  2048   67 51  230/ 13/ 14 1009.7F
CAPE HENRY VA    2048   71     220/  8/ 11   N/A
WILLOUBY STN VA  2048   66     220/ 15/ 15 1010.9F
S CRANEY ISL VA  2048   71     240/  5/  9 1009.9F
CAPE HENRY BUOY  2042      51                N/A     3/ 9   2/11
OFFSHORE WE BUOY 2051      51                N/A     4/ 9   2/11
DUCK PIER NC     2048   66 48  200/ 10/ 12 1010.3F
44056 DUCK FRF   2100      50                N/A     3/ 9   2/11
OREGON INLET NC  2048          210/ 13/ 15   N/A
HATTERAS NC      2048   65 63  160/  5/  7 1011.8F
CAPE LOOKOUT NC  2100   69     200/  8/ 10 1011.5F
$$



USA.gov is the U.S. government's official web portal to all federal, state and local government web resources and services.